Weather History for KMFR - February, 2014

Change the Weather History Date:

Sunday, February 16, 2014

  Actual Average Record
Temperature  
Mean Temperature 47 °F 44 °F  
Max Temperature 56 °F 55 °F 70 °F (1957)
Min Temperature 37 °F 34 °F 14 °F (1956)
Degree Days  
Heating Degree Days 18 21  
Month to date heating degree days 319 347  
Since 1 July heating degree days 3172 2879  
Cooling Degree Days 0 0  
Month to date cooling degree days 0 0  
Year to date cooling degree days 0 0  
Moisture  
Dew Point 34 °F    
Average Humidity 60    
Maximum Humidity 85    
Minimum Humidity 35    
Precipitation  
Precipitation T in 0.07 in 1.03 in (2004)
Month to date precipitation 4.08 1.15  
Year to date precipitation 4.86 3.58  
Snow  
Snow 0.00 in 0.00 in - ()
Month to date snowfall T 0.4  
Since 1 July snowfall 3.4 3.4  
Snow Depth 0.00 in    
Sea Level Pressure  
Sea Level Pressure 30.11 in    
Wind  
Wind Speed 5 mph (WNW)    
Max Wind Speed 18 mph    
Max Gust Speed 23 mph    
Visibility 10 miles    
Events Rain    
T = Trace of Precipitation, MM = Missing Value Source: NWS Daily Summary

Daily Weather History Graph

Daily Weather History Graph

Search for Another Location

Airport or City:

Trip Planner

Search our weather history database for the weather conditions in past years. The results will help you decide how hot, cold, wet, or windy it might be!

Date:

Astronomy

Feb. 16, 2014 Rise Set
Actual Time 7:06 AM PST 5:45 PM PST
Civil Twilight 6:37 AM PST 6:14 PM PST
Nautical Twilight 6:04 AM PST 6:46 PM PST
Astronomical Twilight 5:32 AM PST 7:19 PM PST
Moon 7:50 PM PST (2/16) 7:36 AM PST (2/16)
Length of Visible Light 11h 36m
Length of Day
10h 38m
Full, 97% of the Moon is Illuminated
Feb 16
Full
Feb 22
Last Quarter
Mar 1
New
Mar 8
First Quarter
Mar 16
Full

Hourly Weather History & Observations

Time (PST) Temp. Windchill Dew Point Humidity Pressure Visibility Wind Dir Wind Speed Gust Speed Precip Events Conditions
12:53 AM 42.1 °F - 36.0 °F 79% 29.97 in 10.0 mi Calm Calm - 0.00 in   Mostly Cloudy
1:53 AM 43.0 °F 40.3 °F 34.0 °F 71% 29.99 in 10.0 mi West 4.6 mph - 0.00 in Rain Light Rain
2:53 AM 43.0 °F 38.8 °F 34.0 °F 71% 30.01 in 10.0 mi WNW 6.9 mph - 0.00 in Rain Light Rain
3:53 AM 42.1 °F 37.7 °F 34.0 °F 73% 30.01 in 10.0 mi SW 6.9 mph - 0.00 in   Overcast
4:53 AM 42.1 °F 40.2 °F 34.0 °F 73% 30.03 in 10.0 mi WNW 3.5 mph - N/A   Overcast
5:53 AM 41.0 °F - 35.1 °F 79% 30.06 in 10.0 mi Calm Calm - N/A   Overcast
6:53 AM 39.9 °F 36.7 °F 36.0 °F 86% 30.09 in 10.0 mi SSE 4.6 mph - N/A   Mostly Cloudy
7:53 AM 39.9 °F 37.8 °F 36.0 °F 86% 30.12 in 10.0 mi SSE 3.5 mph - N/A   Scattered Clouds
8:53 AM 42.1 °F 40.2 °F 35.1 °F 76% 30.16 in 10.0 mi SSE 3.5 mph - N/A   Mostly Cloudy
9:53 AM 44.1 °F 42.5 °F 36.0 °F 73% 30.17 in 10.0 mi Variable 3.5 mph - N/A   Overcast
10:53 AM 48.0 °F - 36.0 °F 63% 30.17 in 10.0 mi North 3.5 mph - N/A   Mostly Cloudy
11:53 AM 50.0 °F - 37.0 °F 61% 30.18 in 10.0 mi North 6.9 mph - N/A   Mostly Cloudy
12:53 PM 52.0 °F - 33.1 °F 49% 30.17 in 10.0 mi NNE 3.5 mph - N/A   Mostly Cloudy
1:53 PM 54.0 °F - 34.0 °F 47% 30.14 in 10.0 mi WNW 8.1 mph - N/A   Mostly Cloudy
2:53 PM 54.0 °F - 34.0 °F 47% 30.14 in 10.0 mi WNW 9.2 mph - 0.00 in   Mostly Cloudy
3:53 PM 55.0 °F - 28.9 °F 37% 30.13 in 10.0 mi WSW 11.5 mph 23.0 mph N/A   Mostly Cloudy
4:53 PM 54.0 °F - 30.0 °F 40% 30.13 in 10.0 mi WSW 11.5 mph - N/A   Scattered Clouds
5:53 PM 50.0 °F - 30.9 °F 48% 30.12 in 10.0 mi West 10.4 mph - N/A   Clear
6:53 PM 46.0 °F 44.8 °F 33.1 °F 61% 30.13 in 10.0 mi NNE 3.5 mph - N/A   Clear
7:53 PM 44.1 °F - 34.0 °F 68% 30.14 in 10.0 mi Calm Calm - N/A   Clear
8:53 PM 42.1 °F - 34.0 °F 73% 30.14 in 10.0 mi Calm Calm - N/A   Clear
9:53 PM 39.0 °F 36.8 °F 33.1 °F 79% 30.15 in 10.0 mi NNW 3.5 mph - N/A   Clear
10:53 PM 37.0 °F 32.4 °F 34.0 °F 89% 30.16 in 10.0 mi ENE 5.8 mph - N/A   Clear
11:53 PM 37.9 °F - 34.0 °F 86% 30.14 in 10.0 mi Calm Calm - N/A   Clear